RH
30 31 32 33 35 36 37 35 33 34 34 34 34 33 32 31 28 24 24 26 29 32 29 25 25 23 23 22 18 13 9 6 5 4 3 4 4 4 5 5 5 5 6 6 6 6 6 6 6 6 6 7 7 8 9 9 9 10 16 17 15 17 16 14 14 13 13 12 12 14 13 13 14 14 13 13 14 14 15 16 16 15 15 13 11 11 10 10
31 33 34 36 37 37 38 36 35 35 36 35 32 31 31 32 30 25 23 23 26 29 27 25 24 23 24 22 18 15 12 8 5 4 4 4 4 4 4 5 5 6 6 6 6 6 6 6 6 6 6 7 7 8 9 10 8 12 19 15 14 17 14 12 12 11 10 9 12 14 13 12 13 13 13 14 15 15 15 16 15 14 14 12 12 11 10 10
31 33 34 36 37 38 38 37 36 34 34 32 28 25 27 29 29 26 24 21 22 25 25 25 24 23 25 22 17 14 13 9 5 3 4 4 4 4 4 4 5 5 5 6 6 6 6 6 7 7 7 7 7 8 8 9 9 11 15 14 15 16 11 10 10 9 9 9 12 13 13 13 12 12 13 14 15 16 16 14 14 14 13 12 12 11 11 11
31 33 34 36 38 38 39 37 35 31 29 29 26 22 23 26 26 26 23 19 20 22 23 24 23 23 25 22 17 12 10 7 4 4 4 4 4 4 4 4 5 5 6 6 6 6 7 7 7 7 7 8 8 8 9 9 9 10 14 14 14 13 10 10 9 9 9 9 11 12 13 13 12 13 13 13 14 16 15 13 13 13 12 12 12 11 11 12
28 32 33 35 37 38 37 33 30 28 27 29 27 23 23 26 27 26 23 20 20 21 21 22 23 24 24 21 17 13 11 8 5 4 4 4 4 4 4 4 5 5 6 6 6 7 7 7 8 7 7 8 9 9 10 10 9 9 12 13 13 11 9 9 9 9 9 10 11 13 14 13 14 14 14 14 14 14 13 12 13 13 13 13 12 11 12 12
27 30 33 34 35 35 33 29 27 27 26 28 30 27 24 24 25 23 22 23 22 20 21 23 24 24 22 18 12 9 9 8 6 5 4 5 4 4 5 5 5 5 6 6 6 7 7 7 8 8 8 10 12 11 10 10 9 10 11 12 11 10 9 10 9 9 9 10 12 14 13 13 15 14 15 15 13 13 12 12 13 13 14 13 13 12 12 12
29 29 33 33 33 33 30 27 27 27 26 28 32 30 25 21 20 21 23 24 21 21 23 25 25 21 16 12 7 5 6 8 7 5 5 4 5 5 5 5 5 5 6 6 7 7 7 8 8 8 10 12 12 11 11 10 9 11 12 11 11 10 10 10 10 10 10 10 11 13 13 14 15 15 16 15 13 13 13 13 13 13 14 14 13 13 12 13
31 31 33 33 33 31 28 28 28 27 27 29 31 30 27 23 22 23 24 23 21 23 25 25 22 16 11 8 7 7 6 6 6 5 5 5 5 6 6 6 5 5 6 6 7 7 7 7 8 8 11 12 12 11 11 9 10 12 12 11 11 10 11 11 11 11 11 11 11 13 13 14 15 16 17 15 12 13 14 14 14 13 14 14 13 13 13 14
33 31 33 34 32 29 28 30 30 28 29 29 29 28 29 28 27 26 25 24 24 25 26 25 19 12 9 9 10 9 7 6 5 5 6 6 6 6 6 6 6 6 6 6 7 7 7 7 8 8 10 12 12 12 11 10 10 12 11 11 11 11 12 12 12 12 12 12 12 13 14 14 15 16 15 14 12 13 14 14 15 14 14 14 14 13 14 14
34 33 34 33 30 28 29 30 31 30 29 30 28 28 29 28 27 25 25 26 26 25 25 22 15 10 9 9 9 9 8 7 6 8 7 7 6 6 6 7 7 7 6 7 6 7 7 7 8 8 9 11 12 12 12 12 11 11 11 11 11 12 12 12 12 13 12 12 13 13 15 15 15 16 14 13 13 13 14 15 15 15 14 14 14 14 15 15
35 35 33 31 29 29 29 30 31 30 30 30 29 29 29 26 26 25 26 27 25 24 22 18 12 8 7 6 7 9 9 9 8 8 7 6 6 6 7 8 8 7 7 7 7 7 7 8 9 9 9 11 12 13 13 13 12 11 11 11 12 12 11 12 12 12 13 12 13 13 14 16 16 16 15 13 14 13 14 15 15 14 14 14 14 15 16 17
36 34 31 29 29 29 29 30 31 30 29 28 30 34 31 26 27 27 27 27 24 23 19 14 9 7 7 8 9 11 10 9 8 7 6 6 7 8 8 8 8 8 8 8 8 8 8 9 9 9 10 11 13 14 13 13 11 11 12 12 14 15 13 12 13 12 12 12 13 14 14 15 18 16 14 14 14 14 14 15 15 15 14 15 15 16 17 18
33 31 29 29 30 29 30 31 31 30 28 25 30 35 31 27 28 28 28 28 25 23 17 11 10 10 11 11 11 10 9 8 7 6 7 7 7 8 8 8 8 8 8 8 9 9 9 10 9 10 10 12 14 13 12 12 11 12 14 14 15 18 17 13 13 13 12 13 13 14 13 13 17 16 13 14 15 15 15 15 15 16 16 16 16 17 18 19
29 28 29 30 30 30 31 31 31 31 29 25 27 30 29 28 28 28 27 26 24 22 17 15 14 13 12 11 10 8 7 7 7 7 7 7 8 9 8 8 8 8 9 8 9 10 10 10 10 11 11 12 13 12 15 15 14 16 14 18 20 16 19 17 14 15 13 13 14 14 15 12 14 14 13 14 15 16 16 15 15 16 17 17 17 18 19 19
27 30 33 33 32 31 31 30 29 31 30 27 27 28 29 29 28 27 25 21 19 18 16 16 14 11 8 8 7 7 7 8 8 8 8 8 8 9 8 8 9 9 9 9 10 11 11 11 10 12 13 13 13 13 19 18 20 21 13 20 23 16 21 21 16 17 15 15 15 14 16 14 13 14 14 14 15 16 17 16 16 17 18 18 19 19 20 20
27 31 33 33 32 30 27 26 27 30 31 29 29 30 31 31 28 26 21 16 14 13 11 11 10 8 7 7 7 8 9 9 9 8 8 8 8 9 9 9 10 10 10 10 11 12 11 11 11 13 13 13 16 17 20 19 21 24 16 18 21 17 20 20 17 20 18 17 17 16 18 15 14 15 15 15 15 17 17 17 17 17 19 19 19 20 20 21
25 30 31 31 31 29 25 26 30 32 33 32 31 32 33 32 29 24 18 12 11 10 9 9 8 8 9 9 9 9 9 9 9 9 8 8 8 9 9 10 10 10 10 10 11 12 12 12 12 14 14 18 24 21 18 20 20 21 19 18 21 20 19 18 19 21 20 20 20 20 20 16 15 16 16 16 17 18 18 18 18 18 19 20 20 21 22 23
23 29 29 29 31 31 28 29 32 32 33 33 32 33 32 30 27 22 16 12 10 10 11 11 11 10 10 10 9 9 9 9 9 9 9 9 9 9 10 10 11 11 11 11 11 11 11 12 13 16 18 20 25 22 17 21 21 17 17 18 21 22 21 21 21 21 22 22 22 23 22 19 17 17 17 17 18 19 19 19 19 19 19 20 21 21 23 25
20 26 26 25 27 30 30 28 29 29 31 33 34 33 30 26 23 18 14 12 11 12 13 12 12 11 9 9 9 8 8 9 10 10 9 9 9 10 10 10 11 11 11 12 12 12 12 12 13 15 19 19 19 22 20 20 20 17 18 20 21 21 21 23 24 25 24 23 23 23 22 20 17 17 18 17 18 18 19 20 20 21 21 21 22 22 24 25
21 23 24 24 24 27 31 31 30 29 29 31 32 30 26 23 20 16 13 12 12 13 14 12 10 9 8 9 9 9 9 9 10 10 10 10 10 10 11 10 12 12 13 15 14 13 14 14 15 19 23 21 19 23 23 22 22 21 21 22 22 22 21 22 24 27 25 22 23 23 22 21 18 17 17 17 18 20 21 22 22 22 22 22 23 23 24 25
27 23 22 22 22 26 30 33 32 30 27 27 26 24 21 19 17 14 13 13 13 13 11 9 8 8 8 9 9 9 9 9 10 11 11 10 10 10 11 12 13 13 17 19 16 16 16 15 17 22 26 23 22 25 23 24 25 23 23 23 23 25 23 22 24 26 25 22 23 25 23 21 18 17 17 17 20 21 22 23 23 23 22 23 23 23 24 24
30 27 23 19 19 23 28 33 34 29 23 21 20 18 16 14 13 12 11 11 11 10 9 8 8 9 9 9 9 9 9 10 10 11 11 11 11 11 11 15 16 15 19 21 17 18 18 15 16 21 25 24 25 27 24 25 27 25 25 23 24 26 25 24 25 28 27 23 22 24 23 20 18 18 18 19 21 21 21 22 23 23 23 24 23 23 23 24
32 31 25 18 18 20 24 29 31 26 20 16 14 12 11 11 10 9 9 9 9 9 9 9 9 9 9 9 10 9 9 10 11 11 11 11 11 12 11 16 21 18 19 21 17 16 16 16 18 22 23 22 23 25 25 24 25 25 25 23 24 26 24 24 26 27 27 25 24 25 24 21 20 20 20 22 23 23 23 23 24 24 25 25 24 24 24 25
34 31 24 17 16 17 20 24 25 25 22 18 14 10 10 12 12 11 10 10 10 10 10 10 10 9 9 10 10 10 10 11 12 11 11 11 11 12 12 15 20 16 17 23 21 17 16 17 21 23 24 23 21 22 23 20 21 26 26 23 25 25 23 24 26 26 27 28 28 25 23 22 22 22 22 23 25 24 24 25 25 26 26 26 27 26 25 25
36 32 26 17 13 15 17 20 22 21 20 19 16 14 13 12 12 13 11 11 12 12 11 10 10 9 10 11 10 11 11 11 12 11 12 12 11 13 14 14 14 13 18 24 21 16 16 19 21 22 23 23 21 21 22 20 21 25 26 24 25 25 23 25 27 26 26 28 27 25 25 24 22 22 22 24 26 25 24 26 26 26 27 28 28 26 26 26
41 37 32 22 14 11 12 16 18 17 17 16 14 15 14 11 11 10 12 15 14 13 13 11 11 12 11 11 11 11 11 12 13 12 12 12 12 13 14 15 14 14 20 21 17 16 19 22 22 21 22 21 20 20 22 22 21 23 26 26 26 26 25 26 27 26 27 27 25 26 28 27 21 20 23 26 27 25 25 27 26 25 27 28 27 26 27 27
44 40 34 28 20 12 8 11 12 13 15 14 13 14 14 13 12 9 11 16 13 11 14 12 11 13 14 14 13 12 11 12 13 13 13 12 14 13 14 18 16 15 19 16 14 18 21 21 21 21 21 20 19 20 21 23 23 24 27 27 27 26 26 27 27 27 29 28 27 28 28 30 27 23 25 27 26 25 25 28 28 26 27 27 27 28 28 29
43 38 34 31 25 17 12 10 9 9 10 10 10 10 11 12 11 11 12 12 10 12 15 14 12 13 13 14 13 13 13 13 13 13 13 13 14 13 14 17 18 19 20 14 14 20 21 20 21 21 20 20 20 21 23 23 22 25 29 29 29 28 28 30 30 32 33 29 29 29 27 31 31 25 27 27 24 26 28 30 32 28 27 27 28 30 31 32
42 36 34 31 27 23 18 14 11 10 10 9 8 8 9 8 8 12 13 10 10 14 16 14 14 13 13 13 13 13 13 13 14 13 13 13 13 14 14 16 19 21 19 15 17 21 19 20 21 20 21 22 22 24 25 23 22 25 29 30 31 33 32 33 33 33 34 31 30 30 28 30 30 24 27 28 24 28 32 35 36 29 27 29 30 32 34 35
42 37 35 30 24 21 18 16 13 11 10 8 7 9 8 8 14 17 12 10 12 14 15 14 14 14 14 15 14 13 13 13 14 13 12 13 13 13 15 16 17 19 21 20 20 21 20 22 23 21 20 22 24 27 27 26 26 26 28 28 29 32 32 34 37 33 31 34 33 30 29 31 30 27 28 30 28 31 33 34 36 31 30 32 32 34 37 39
43 38 34 28 22 18 15 13 12 11 10 8 7 9 7 10 20 18 9 10 13 13 14 15 16 19 19 17 14 15 17 16 15 14 14 14 15 15 15 16 16 19 26 26 21 20 21 22 25 23 21 21 22 25 27 28 29 26 26 27 26 29 29 31 37 33 32 37 34 32 33 32 32 29 30 34 36 38 36 33 35 36 34 34 34 36 38 42
43 39 33 27 20 16 13 11 11 10 10 10 8 8 11 11 14 14 10 11 13 13 16 16 18 21 22 18 15 17 19 16 16 18 19 19 19 18 17 19 17 17 24 25 19 20 22 23 25 23 23 23 21 23 25 27 29 26 27 30 29 32 34 34 36 35 35 37 32 33 35 32 32 31 30 34 36 39 39 36 39 42 39 38 38 39 42 45
42 40 36 29 20 14 10 9 10 9 10 10 6 9 15 14 10 13 15 13 11 14 17 18 20 22 21 17 15 18 18 16 17 20 22 21 18 18 20 23 21 16 19 21 19 21 23 24 24 21 22 24 21 22 23 23 26 25 27 31 32 35 39 41 42 37 35 34 32 35 36 33 33 31 33 36 37 38 40 41 44 45 43 42 42 44 46 49
41 40 38 34 26 17 12 9 8 9 9 8 7 9 12 11 11 13 15 14 14 17 19 20 20 19 18 16 17 19 16 15 19 20 21 20 17 17 19 21 22 21 22 21 19 21 21 21 21 21 22 23 21 23 23 24 27 27 28 30 32 35 36 37 41 37 34 36 36 35 35 35 34 31 35 38 38 40 43 46 48 46 44 44 45 48 51 54
39 39 38 36 31 25 19 13 8 9 8 8 13 14 10 11 12 13 15 16 16 16 19 21 18 14 17 20 21 20 16 16 20 19 19 19 17 18 19 18 22 24 23 21 21 22 20 19 21 23 23 22 22 24 25 25 27 28 29 29 32 36 34 34 39 39 39 44 45 39 36 36 33 31 37 40 40 44 47 48 48 46 44 45 48 52 56 59
36 36 33 31 29 27 24 17 11 8 8 11 14 14 15 15 11 11 16 16 15 14 15 18 18 15 17 20 20 22 19 17 19 18 18 21 19 20 21 20 23 23 19 20 23 23 19 19 24 25 23 23 25 25 25 25 26 28 30 30 33 35 35 35 38 40 43 47 45 38 34 36 33 33 39 41 44 48 50 50 47 45 44 47 51 56 59 61
33 30 27 26 26 25 24 18 11 7 7 12 12 13 19 17 11 16 19 17 17 16 13 15 16 15 17 17 18 22 19 17 20 18 17 19 18 19 23 22 23 24 20 20 21 21 20 22 25 25 22 24 25 25 25 25 27 30 30 32 33 33 36 39 40 45 52 52 46 38 36 38 36 36 39 41 45 50 51 51 48 44 46 51 55 59 61 61
27 24 21 22 22 22 21 15 9 8 8 11 13 16 20 16 14 20 21 19 19 16 13 14 14 15 18 17 16 19 18 16 20 19 17 17 16 18 22 23 24 25 23 21 20 21 23 23 25 26 24 24 24 24 25 25 26 29 30 32 32 33 39 43 42 47 53 54 50 42 39 41 40 40 40 41 46 49 49 50 48 47 51 55 58 60 60 58
22 21 19 20 19 18 17 11 8 9 10 12 16 17 17 17 19 22 22 21 19 16 15 15 14 15 18 18 16 17 18 17 18 18 16 16 15 17 20 21 24 26 25 23 22 23 23 22 24 25 24 24 24 24 28 28 28 29 31 34 36 38 43 44 44 48 51 54 55 48 41 40 41 43 44 45 47 49 48 48 49 51 55 57 59 59 56 54
22 20 19 18 15 13 12 9 9 12 12 15 20 19 17 19 21 21 22 21 18 16 16 16 15 15 17 19 18 17 18 20 19 17 16 17 16 17 21 22 23 25 25 22 22 24 23 21 24 25 23 24 24 25 28 30 32 33 35 37 39 40 43 43 43 47 51 54 59 59 49 39 40 46 48 48 49 49 48 48 51 55 57 58 60 58 53 50
19 17 15 12 10 10 10 10 13 17 15 16 19 19 20 21 20 21 22 20 18 17 17 17 17 16 16 17 16 16 19 21 21 18 17 18 16 16 23 27 25 24 23 21 21 23 23 23 26 27 24 23 24 27 29 30 33 36 37 39 41 42 44 46 46 49 52 53 56 60 53 38 40 50 52 50 51 51 49 50 53 57 58 58 58 54 50 49
12 11 11 10 10 10 11 12 16 20 18 15 16 18 22 23 21 20 21 20 19 18 17 18 19 19 18 16 16 18 18 19 21 19 17 18 16 17 25 30 27 24 22 21 23 23 24 27 29 27 25 24 26 29 30 32 34 35 36 40 43 45 45 47 50 50 52 52 54 61 58 45 44 52 53 50 51 50 50 54 56 57 57 57 52 47 46 48
8 9 10 10 10 10 10 12 15 18 19 18 18 19 22 24 20 18 20 20 18 17 17 19 18 17 17 17 17 18 16 16 19 18 18 19 19 23 29 29 27 25 22 22 24 24 25 28 28 27 27 26 27 29 30 32 32 32 36 42 44 47 48 48 51 52 53 54 55 61 60 48 45 50 51 51 51 51 52 56 57 55 53 50 46 45 48 53
9 9 10 11 11 9 10 12 11 15 21 22 19 18 20 21 20 19 19 18 17 17 18 19 17 15 18 19 18 17 15 15 17 17 19 22 23 27 31 29 27 26 23 23 25 24 25 29 29 29 30 29 30 33 33 33 33 33 39 45 47 49 52 52 52 53 55 56 56 58 54 45 46 50 49 50 51 50 51 53 54 54 52 50 50 53 58 62
9 9 10 10 10 8 10 13 11 14 23 23 17 17 18 18 19 19 19 18 18 17 16 17 17 16 19 20 19 20 19 16 16 18 20 22 24 27 29 28 28 28 26 27 26 23 25 28 28 29 32 33 33 35 35 36 37 38 42 47 49 50 52 54 55 56 57 57 57 57 51 42 43 47 47 49 50 48 48 52 56 58 57 57 60 61 61 63
9 9 10 10 10 9 11 13 12 14 22 20 13 15 17 16 16 17 18 17 17 17 16 17 17 17 19 19 19 21 21 19 19 20 21 21 23 26 29 30 29 28 29 29 25 25 28 29 28 30 33 32 30 32 35 39 41 42 45 49 50 52 52 54 59 60 58 58 56 54 51 45 41 43 45 48 50 52 57 60 61 61 60 61 61 59 58 59
9 10 11 11 10 10 11 12 11 12 15 13 10 12 15 15 14 15 17 18 18 18 17 17 19 17 17 18 18 19 22 23 22 21 22 24 26 26 28 31 31 30 31 28 24 27 31 30 31 34 32 31 33 35 39 42 42 43 46 48 49 53 53 52 55 55 54 58 55 49 50 49 44 43 48 53 57 61 64 63 61 60 61 60 57 55 55 55
9 10 12 11 10 11 10 11 13 13 13 13 13 14 14 16 14 13 16 19 19 19 16 16 18 19 18 19 17 18 22 23 22 22 23 26 27 25 24 29 33 31 30 27 26 30 33 33 35 37 35 35 39 41 41 44 44 45 47 48 48 51 52 50 50 49 50 55 53 48 50 53 50 51 56 61 65 66 64 60 59 60 59 56 53 51 50 49
10 10 11 11 11 11 12 13 14 14 14 15 16 15 15 16 15 14 17 18 18 19 17 15 16 20 24 23 17 18 22 19 17 21 24 25 25 24 21 24 30 32 30 29 30 31 35 39 42 43 40 39 42 44 44 45 46 47 48 47 46 48 50 50 49 49 52 55 54 53 55 57 57 60 63 64 66 64 60 58 57 56 54 51 47 45 43 42
9 10 11 11 11 12 14 15 14 13 15 14 13 13 15 18 16 14 17 16 15 18 19 16 17 22 28 27 21 20 22 20 16 18 22 23 24 26 24 22 29 35 33 33 35 33 34 41 48 47 42 39 42 44 45 45 46 45 44 44 45 47 50 54 55 56 59 60 60 61 64 63 62 64 64 63 61 58 54 53 51 49 47 44 41 40 39 39
9 10 11 10 11 13 15 16 15 14 15 14 12 13 16 19 18 17 18 17 15 18 20 19 21 26 29 29 26 23 22 21 19 19 21 22 22 25 24 23 31 38 37 37 38 36 36 42 47 46 43 41 42 42 42 41 40 41 42 43 45 49 53 59 62 63 64 62 62 66 68 67 64 62 59 56 52 49 46 45 44 43 41 39 39 39 38 35
9 10 11 10 11 13 14 15 14 12 13 14 14 15 16 18 19 18 16 17 19 20 20 20 21 23 26 26 26 24 22 22 23 24 24 24 25 26 26 26 31 38 40 41 42 42 42 43 44 46 45 43 41 39 37 37 40 43 45 45 49 54 57 60 64 67 67 65 65 68 68 64 61 58 53 47 42 41 41 41 42 42 39 38 38 37 33 28